Weather History for Columbia, MO

Change the Weather History Date:

Thursday, May 9, 2013

  Actual Average Record
Temperature  
Mean Temperature 68 °F 62 °F  
Max Temperature 75 °F 73 °F 91 °F (1895)
Min Temperature 60 °F 51 °F 31 °F (1906)
Degree Days  
Heating Degree Days 0 5  
Month to date heating degree days 76 48  
Since 1 July heating degree days 4837 4951  
Cooling Degree Days 3 2  
Month to date cooling degree days 12 11  
Year to date cooling degree days 34 36  
Growing Degree Days 18 (Base 50)    
Moisture  
Dew Point 59 °F    
Average Humidity 73    
Maximum Humidity 93    
Minimum Humidity 53    
Precipitation  
Precipitation 0.10 in 0.17 in 1.87 in (1894)
Month to date precipitation 1.29 1.53  
Year to date precipitation 18.21 13.10  
Snow  
Snow 0.00 in 0.00 in 0.00 in (2013)
Month to date snowfall T 0.0  
Since 1 July snowfall 35.0 18.0  
Snow Depth 0.00 in    
Sea Level Pressure  
Sea Level Pressure 29.89 in    
Wind  
Wind Speed 9 mph (SW)    
Max Wind Speed 22 mph    
Max Gust Speed 27 mph    
Visibility 10 miles    
Events Rain    
T = Trace of Precipitation, MM = Missing Value Source: NWS Daily Summary

Daily Weather History Graph

Daily Weather History Graph

Search for Another Location

Airport:

Trip Planner

Search our weather history database for the weather conditions in past years. The results will help you decide how hot, cold, wet, or windy it might be!

Date:

Astronomy

May. 09, 2013 Rise Set
Actual Time 6:02 AM CDT 8:09 PM CDT
Civil Twilight 5:32 AM CDT 8:38 PM CDT
Nautical Twilight 4:56 AM CDT 9:14 PM CDT
Astronomical Twilight 4:17 AM CDT 9:54 PM CDT
Moon 5:46 AM CDT (5/9) 8:04 PM CDT (5/9)
Length of Visible Light 15h 06m
Length of Day
14h 07m
Waning Crescent, 0% of the Moon is Illuminated
May 9
Waning Crescent
May 9
New
May 17
First Quarter
May 24
Full
May 31
Last Quarter

Hourly Weather History & Observations

Time (CDT) Temp. Dew Point Humidity Pressure Visibility Wind Dir Wind Speed Gust Speed Precip Events Conditions
12:54 AM 61.0 °F 55.9 °F 83% 29.93 in 10.0 mi SE 9.2 mph - N/A   Partly Cloudy
1:54 AM 62.1 °F 55.9 °F 80% 29.91 in 10.0 mi SSE 9.2 mph - N/A   Mostly Cloudy
2:54 AM 62.1 °F 55.9 °F 80% 29.90 in 10.0 mi SSE 9.2 mph - N/A   Mostly Cloudy
3:54 AM 62.1 °F 55.9 °F 80% 29.89 in 10.0 mi SSE 10.4 mph - N/A   Partly Cloudy
4:54 AM 63.0 °F 55.9 °F 78% 29.91 in 10.0 mi Variable 6.9 mph - N/A   Mostly Cloudy
5:54 AM 63.0 °F 55.9 °F 78% 29.90 in 10.0 mi Variable 4.6 mph - N/A   Overcast
6:54 AM 62.1 °F 57.0 °F 84% 29.90 in 10.0 mi ENE 4.6 mph - N/A   Overcast
7:54 AM 63.0 °F 57.9 °F 84% 29.90 in 10.0 mi SE 3.5 mph - N/A   Mostly Cloudy
8:54 AM 64.0 °F 60.1 °F 87% 29.89 in 10.0 mi SSE 9.2 mph - 0.01 in   Mostly Cloudy
9:54 AM 63.0 °F 60.1 °F 90% 29.89 in 9.0 mi SSE 11.5 mph - 0.00 in Rain Light Rain
10:54 AM 63.0 °F 60.1 °F 90% 29.90 in 5.0 mi SSE 8.1 mph - 0.04 in Rain Light Rain
11:54 AM 62.6 °F 60.8 °F 94% 29.91 in 7.0 mi SW 9.2 mph - N/A Rain Light Rain
12:54 PM 64.9 °F 62.1 °F 90% 29.89 in 10.0 mi WSW 9.2 mph - 0.00 in   Overcast
1:16 PM 64.9 °F 61.0 °F 87% 29.90 in 10.0 mi West 12.7 mph - N/A   Overcast
1:23 PM 66.0 °F 61.0 °F 84% 29.90 in 10.0 mi WSW 11.5 mph - N/A   Overcast
1:30 PM 66.9 °F 62.1 °F 84% 29.90 in 10.0 mi West 10.4 mph - N/A   Mostly Cloudy
1:49 PM 68.0 °F 60.8 °F 78% 29.90 in 10.0 mi SW 9.2 mph - N/A   Mostly Cloudy
1:54 PM 68.0 °F 61.0 °F 78% 29.89 in 10.0 mi WSW 11.5 mph - N/A   Overcast
2:07 PM 68.0 °F 62.1 °F 81% 29.89 in 10.0 mi SSW 9.2 mph - N/A   Mostly Cloudy
2:26 PM 70.0 °F 62.1 °F 76% 29.88 in 10.0 mi WSW 6.9 mph - N/A   Scattered Clouds
2:31 PM 69.1 °F 62.1 °F 78% 29.88 in 10.0 mi SSW 9.2 mph - N/A   Mostly Cloudy
2:54 PM 70.0 °F 62.1 °F 76% 29.86 in 10.0 mi SSW 8.1 mph - N/A   Mostly Cloudy
3:14 PM 73.0 °F 62.1 °F 68% 29.87 in 10.0 mi WSW 10.4 mph - N/A   Scattered Clouds
3:54 PM 73.9 °F 62.1 °F 66% 29.86 in 10.0 mi WSW 12.7 mph - N/A   Partly Cloudy
4:54 PM 73.0 °F 59.0 °F 61% 29.86 in 10.0 mi SSW 12.7 mph - N/A   Mostly Cloudy
5:54 PM 73.9 °F 55.9 °F 53% 29.84 in 10.0 mi SW 15.0 mph - N/A   Mostly Cloudy
6:54 PM 72.0 °F 55.0 °F 55% 29.85 in 10.0 mi West 11.5 mph - N/A   Clear
7:54 PM 66.9 °F 59.0 °F 76% 29.87 in 10.0 mi NW 11.5 mph - N/A   Partly Cloudy
8:54 PM 64.0 °F 57.9 °F 80% 29.89 in 10.0 mi NW 8.1 mph - N/A   Partly Cloudy
9:54 PM 63.0 °F 57.9 °F 84% 29.90 in 10.0 mi NW 3.5 mph - N/A   Scattered Clouds
10:54 PM 60.1 °F 57.9 °F 93% 29.90 in 10.0 mi SW 4.6 mph - N/A   Mostly Cloudy
11:54 PM 61.0 °F 57.9 °F 90% 29.91 in 10.0 mi WSW 4.6 mph - N/A   Scattered Clouds